Hyannis, MA

3:36 PM EDT on July 26, 2017 (GMT -0400)
Barnstable Municipal-Boardman-Polando Field

Weather History for KHYA - September, 2012

Change the Weather History Date:

Tuesday, September 11, 2012

  Actual Average Record
Temperature  
Mean Temperature 58 °F -  
Max Temperature 69 °F 74 °F 91 °F (1931)
Min Temperature 50 °F 58 °F 40 °F (1963)
Degree Days  
Heating Degree Days 7    
Growing Degree Days 8 (Base 50)    
Moisture  
Dew Point 48 °F    
Average Humidity 69    
Maximum Humidity 93    
Minimum Humidity 45    
Precipitation  
Precipitation 0.00 in - - ()
Sea Level Pressure  
Sea Level Pressure 30.17 in    
Wind  
Wind Speed 7 mph (WNW)    
Max Wind Speed 13 mph    
Max Gust Speed 20 mph    
Visibility 10 miles    
Events      
Averages and records for this station are not official NWS values.
T = Trace of Precipitation, MM = Missing Value Source: NWS Daily Summary

Daily Weather History Graph

Daily Weather History Graph

Search for Another Location

Airport or City:

Trip Planner

Search our weather history database for the weather conditions in past years. The results will help you decide how hot, cold, wet, or windy it might be!

Date:

Astronomy

Sep. 11, 2012 Rise Set
Actual Time 6:17 AM EDT 6:56 PM EDT
Civil Twilight 5:49 AM EDT 7:24 PM EDT
Nautical Twilight 5:16 AM EDT 7:57 PM EDT
Astronomical Twilight 4:42 AM EDT 8:31 PM EDT
Moon 1:28 AM EDT (9/11) 4:07 PM EDT (9/11)
Length of Visible Light 13h 34m
Length of Day
12h 38m
Waning Crescent, 21% of the Moon is Illuminated
Sep 11
Waning Crescent
Sep 15
New
Sep 22
First Quarter
Sep 29
Full
Oct 8
Last Quarter

Hourly Weather History & Observations

Time (EDT) Temp. Dew Point Humidity Pressure Visibility Wind Dir Wind Speed Gust Speed Precip Events Conditions
12:56 AM 57.9 °F 46.9 °F 67% 30.02 in 10.0 mi NW 8.1 mph 19.6 mph N/A   Clear
1:56 AM 55.0 °F 46.0 °F 72% 30.04 in 10.0 mi WNW 6.9 mph - N/A   Clear
2:56 AM 53.1 °F 45.0 °F 74% 30.04 in 10.0 mi WNW 6.9 mph - N/A   Clear
3:56 AM 52.0 °F 45.0 °F 77% 30.06 in 10.0 mi WNW 5.8 mph - N/A   Clear
4:56 AM 51.1 °F 45.0 °F 80% 30.08 in 10.0 mi WNW 5.8 mph - N/A   Clear
5:56 AM 50.0 °F 45.0 °F 83% 30.10 in 10.0 mi WNW 4.6 mph - N/A   Clear
6:56 AM 50.0 °F 46.0 °F 86% 30.14 in 10.0 mi WNW 6.9 mph - N/A   Clear
7:56 AM 55.9 °F 48.0 °F 75% 30.17 in 10.0 mi NW 6.9 mph - N/A   Clear
8:56 AM 59.0 °F 48.9 °F 69% 30.18 in 10.0 mi NNW 9.2 mph 17.3 mph N/A   Clear
9:56 AM 61.0 °F 50.0 °F 67% 30.20 in 10.0 mi NNW 8.1 mph 17.3 mph N/A   Clear
10:56 AM 62.1 °F 48.0 °F 60% 30.21 in 10.0 mi NNW 12.7 mph 18.4 mph N/A   Clear
11:56 AM 63.0 °F 46.0 °F 54% 30.21 in 10.0 mi NNW 10.4 mph 17.3 mph N/A   Clear
12:56 PM 64.9 °F 45.0 °F 48% 30.21 in 10.0 mi North 10.4 mph - N/A   Clear
1:56 PM 66.0 °F 44.1 °F 45% 30.20 in 10.0 mi Variable 5.8 mph - N/A   Clear
2:56 PM 66.9 °F 48.0 °F 51% 30.19 in 10.0 mi Variable 4.6 mph - N/A   Clear
3:56 PM 66.9 °F 46.9 °F 49% 30.19 in 10.0 mi Variable 4.6 mph - N/A   Clear
4:56 PM 66.0 °F 48.0 °F 52% 30.20 in 10.0 mi SW 8.1 mph - N/A   Clear
5:56 PM 64.0 °F 48.9 °F 58% 30.21 in 10.0 mi SW 4.6 mph - N/A   Clear
6:56 PM 62.1 °F 50.0 °F 65% 30.22 in 10.0 mi West 3.5 mph - N/A   Clear
7:56 PM 55.9 °F 50.0 °F 80% 30.24 in 10.0 mi Calm Calm - N/A   Clear
8:56 PM 55.0 °F 51.1 °F 86% 30.26 in 10.0 mi SW 5.8 mph - N/A   Clear
9:56 PM 54.0 °F 48.9 °F 83% 30.27 in 10.0 mi Calm Calm - N/A   Clear
10:56 PM 55.0 °F 51.1 °F 86% 30.27 in 10.0 mi Calm Calm - N/A   Clear
11:56 PM 52.0 °F 50.0 °F 93% 30.27 in 10.0 mi Calm Calm - N/A   Clear